Вернуться в каталог

DELTA 1 DEB

АктивенSSO
NORAD 13826·DEBRIS·🇺🇸 United States

Запущен Mar 5, 1978 с Vandenberg Space Force Base

Loading…

Ближайшие Пролёты (ближайшие 24 часа)

TLE

СвежийSource: Space-Track

Эпоха: Sep 14, 2026, 11:41 UTC

1 13826U 78026FV  26257.48723766  .00004478  00000-0  50671-3 0  9993
2 13826  98.2387 280.5601 0026037 165.2704 194.9275 14.86740651315552

Отслеживайте DELTA 1 DEB в реальном времени с AllMySat

Download on the App Store